869  
ASUS43 KLMK 222302  
RWRKY  
KENTUCKY REGIONAL WEATHER ROUNDUP  
NATIONAL WEATHER SERVICE LOUISVILLE KY  
600 PM EST FRI FEB 22 2019  
 
NOTE "FAIR" INDICATES FEW OR NO CLOUDS BELOW 12,000 FEET  
WITH NO SIGNIFICANT WEATHER AND/OR S TO VISIBILITY
.  
 
KYZ001>023-026-027-061>063-070>075-230000-  
WESTERN AND SOUTH CENTRAL KENTUCKY  
 
CITY SKY/WX TMP DP RH WIND PRES REMARKS
 
PADUCAH CLOUDY 46 37 71 E10 30.16F  
HENDERSON CLOUDY 45 36 70 E13 30.23F  
OWENSBORO CLOUDY 47 35 63 E8 30.24F  
HOPKINSVILLE CLOUDY 45 45 100 NE9 30.19F  
BOWLING GREEN LGT RAIN 45 42 89 NE8 30.24F  
GLASGOW LGT RAIN 43 42 97 NE8 30.25S  

 
 
KYZ024-025-028>034-038-045-046-053-230000-  
NORTH CENTRAL KENTUCKY  
 
CITY SKY/WX TMP DP RH WIND PRES REMARKS
 
LOUISVILLE/SDF CLOUDY 47 32 56 E8 30.29F  
LOUISVILLE/LOU CLOUDY 45 31 58 E10 30.29F  
FORT KNOX CLOUDY 44 33 65 NE7 30.27F  

 
 
KYZ035>037-039>044-047>052-055>060-089>105-230000-  
NORTHEAST KENTUCKY  
 
CITY SKY/WX TMP DP RH WIND PRES REMARKS
 
LEXINGTON CLOUDY 44 32 62 NE9 30.29R  
COVINGTON CLOUDY 42 30 62 E8 30.31F  
FRANKFORT CLOUDY 45 31 58 NE8 30.28R  

 
 
KYZ054-064>069-076>088-106>120-230000-  
SOUTHEAST KENTUCKY  
 
CITY SKY/WX TMP DP RH WIND PRES REMARKS
 
JACKSON LGT RAIN 39 39 100 VRB6 30.27R FOG WCI 35  
LONDON LGT RAIN 45 45 100 NE3 30.23S  
SOMERSET NOT AVBL  
MIDDLESBORO LGT RAIN 48 48 100 CALM 30.25S  
MONTICELLO LGT RAIN 47 46 97 VRB5 30.24R  

 
 
 
 
CLICK HERE TO GO TO PREVIOUS BULLETINS.

The Nexlab KY Page Main Text Page